Location: Airlie Beach - Cannonvale QLD, Australia
(20.2768°S, 148.7558°E)
Time: 16:07:53
(UTC+10:00)

Tiangong - Pass Details

Date: 26 May 2026
Orbit: 381 x 392 km, 41.5° (Epoch: 8 June)

Event Time Altitude Azimuth Distance (km) Brightness Sun altitude
Exits shadow 05:23:43 11° 184° (S) 1,364 0.4 -15.7°
Drops below altitude 10° 05:23:57 10° 180° (S) 1,410 0.5 -15.6°
Sets 05:26:53 0° 150° (SSE) 2,266 1.9 -15.0°
